INTELSAT 16 (IS-16)

Last updated on Thu Oct 30 2025 00:02:48 GMT+0000 (Coordinated Universal Time)

1 36397U 10006A 25302.48239102 -.00000236 00000+0 00000+0 0 9996 2 36397 0.0145 278.3018 0002271 302.7655 274.5043 1.00283056 57348
UTC large
Height (km)
Speed (km/s)
/
Latitude / Longitude
Inclination (degrees)
Orbital Period (minutes)
Azimuth
Elevation
Range (km)
Doppler Factor

Next 0 passes for location: London (51.5072 / 0.1276)

Sorry there are no passes over London.